Location: Azul
(36.7830°S, 59.8500°W)
Time: 03:29:07
(UTC-03:00)

ISS - Pass Details

Date: 23 November 2020
Orbit: 418 x 420 km, 51.6° (Epoch: 04 December)

Event Time Altitude Azimuth Distance (km) Brightness Sun altitude
Exits shadow 04:43:45 - 356° (N) 1,987 -0.7 -9.9°
Reaches altitude 10° 04:45:20 10° 11° (NNE) 1,508 -1.2 -9.6°
Maximum altitude 04:47:31 16° 52° (NE) 1,194 -1.2 -9.3°
Drops below altitude 10° 04:49:43 10° 92° (E) 1,522 0.1 -8.9°
Sets 04:52:23 0° 114° (ESE) 2,397 2.2 -8.5°
